"日付","酸洗鋼版（3×6）（4×8）2.3ミリ","アルミ地金99.7％","","冷延ステンレス鋼板（薄板）SUS-304　2.0（18Cr-8Ni）","快削黄銅棒","","","ニッケル溶解用",""
"","値","高値","安値","値","25mm 値","10mm 値","5mm 値","高値","高値"
"2015/1/5","65","300","295","315","715","725","775","2000","1950"
"2015/1/6","65","295","290","315","715","725","775","1950","1900"
"2015/1/7","65","289","284","315","715","725","775","2000","1950"
"2015/1/8","65","291","286","315","695","705","755","2000","1950"
"2015/1/9","62","298","293","315","695","705","755","2000","1950"
"2015/1/13","65","293","288","315","695","705","755","1950","1900"
"2015/1/14","65","289","284","315","665","675","725","1950","1900"
"2015/1/15","65","289","284","315","665","675","725","1850","1800"
"2015/1/16","65","287","282","315","665","675","725","1850","1800"
"2015/1/19","65","296","291","315","655","665","715","1850","1800"
"2015/1/20","65","296","291","315","655","665","715","1850","1800"
"2015/1/21","65","300","295","315","655","665","715","1900","1850"
"2015/1/22","65","303","298","315","655","665","715","1900","1850"
"2015/1/23","65","303","298","315","655","665","715","1900","1850"
"2015/1/26","65","295","290","315","640","650","700","1900","1850"
"2015/1/27","65","304","299","315","640","650","700","1900","1850"
"2015/1/28","65","300","295","315","640","650","700","1900","1850"
"2015/1/29","65","297","292","315","640","650","700","1900","1850"
"2015/1/30","65","296","291","320","640","650","700","1900","1850"
"2015/2/2","65","298","293","320","640","650","700","1900","1850"
"2015/2/3","65","299","294","320","640","650","700","1950","1900"
"2015/2/4","65","301","296","320","640","650","700","1950","1900"
"2015/2/5","65","299","294","320","655","665","715","1950","1900"
"2015/2/6","65","300","295","320","655","665","715","1950","1900"
"2015/2/9","65","303","298","320","655","665","715","1950","1900"
"2015/2/10","65","301","296","320","655","665","715","1950","1900"
"2015/2/12","65","299","294","320","655","665","715","1950","1900"
"2015/2/13","65","298","293","320","660","670","720","1950","1900"
"2015/2/16","65","297","292","320","660","670","720","1950","1900"
"2015/2/17","63","295","290","320","660","670","720","1900","1850"
"2015/2/18","63","296","291","320","660","670","720","1900","1850"
"2015/2/19","63","295","290","320","660","670","720","1850","1800"
"2015/2/20","63","295","290","320","660","670","720","1850","1800"
"2015/2/23","63","294","289","320","660","670","720","1850","1800"
"2015/2/24","63","293","288","320","660","670","720","1850","1800"
"2015/2/25","63","295","290","320","660","670","720","1850","1800"
"2015/2/26","63","294","289","320","660","670","720","1850","1800"
"2015/2/27","63","296","291","320","660","670","720","1900","1850"
"2015/3/2","63","300","295","320","675","685","735","1900","1850"
"2015/3/3","63","299","294","320","675","685","735","1850","1800"
"2015/3/4","63","297","292","320","675","685","735","1800","1750"
"2015/3/5","63","297","292","320","670","680","730","1800","1750"
"2015/3/6","63","296","291","320","670","680","730","1850","1800"
"2015/3/9","63","294","289","320","670","680","730","1850","1800"
"2015/3/10","63","296","291","320","675","685","735","1900","1850"
"2015/3/11","63","294","289","320","675","685","735","1900","1850"
"2015/3/12","63","293","288","320","675","685","735","1900","1850"
"2015/3/13","63","294","289","320","675","685","735","1850","1800"
"2015/3/16","63","295","290","320","675","685","735","1850","1800"
"2015/3/17","63","296","291","320","675","685","735","1850","1800"
"2015/3/18","63","297","292","320","675","685","735","1850","1800"
"2015/3/19","63","294","289","320","660","670","720","1800","1750"
"2015/3/20","63","293","288","320","660","670","720","1800","1750"
"2015/3/23","63","293","288","320","660","670","720","1850","1800"
"2015/3/24","63","291","286","320","695","705","755","1850","1800"
"2015/3/25","63","290","285","320","695","705","755","1850","1800"
"2015/3/26","63","288","283","320","695","705","755","1800","1750"
"2015/3/27","63","290","285","320","690","700","750","1800","1750"
"2015/3/30","63","289","284","320","690","700","750","1800","1750"
"2015/3/31","63","293","288","320","690","700","750","1750","1700"
"2015/4/1","63","290","285","320","685","695","745","1700","1650"
"2015/4/2","63","291","286","320","685","695","745","1650","1600"
"2015/4/3","63","291","286","320","685","695","745","1700","1650"
"2015/4/6","63","291","286","320","675","685","735","1700","1650"
"2015/4/7","63","291","286","320","675","685","735","1700","1650"
"2015/4/8","63","292","287","320","675","685","735","1700","1650"
"2015/4/9","63","291","286","320","690","700","750","1700","1650"
"2015/4/10","63","291","286","320","690","700","750","1700","1650"
"2015/4/13","63","291","286","320","690","700","750","1700","1650"
"2015/4/14","63","292","287","320","690","700","750","1700","1650"
"2015/4/15","63","293","288","320","685","695","745","1650","1600"
"2015/4/16","63","297","292","320","685","695","745","1650","1600"
"2015/4/17","63","297","292","320","685","695","745","1700","1650"
"2015/4/20","63","299","294","320","690","700","750","1700","1650"
"2015/4/21","63","297","292","320","690","700","750","1650","1600"
"2015/4/22","63","299","294","320","690","700","750","1700","1650"
"2015/4/23","63","297","292","320","690","700","750","1700","1650"
"2015/4/24","63","295","290","320","685","695","745","1700","1650"
"2015/4/27","63","298","293","320","685","695","745","1700","1650"
"2015/4/28","63","298","293","320","685","695","745","1750","1700"
"2015/4/30","63","301","296","320","685","695","745","1750","1700"
"2015/5/1","63","306","301","320","685","695","745","1800","1750"
"2015/5/7","63","304","299","320","725","735","785","1900","1850"
"2015/5/8","63","298","293","320","725","735","785","1850","1800"
"2015/5/11","63","299","294","320","725","735","785","1850","1800"
"2015/5/12","63","298","293","320","725","735","785","1900","1850"
"2015/5/13","63","298","293","320","725","735","785","1900","1850"
"2015/5/14","63","296","291","320","725","735","785","1850","1800"
"2015/5/15","63","294","289","320","725","735","785","1850","1800"
"2015/5/18","63","292","287","320","725","735","785","1800","1750"
"2015/5/19","63","289","284","320","720","730","780","1800","1750"
"2015/5/20","63","287","282","320","720","730","780","1800","1750"
"2015/5/21","63","287","282","320","720","730","780","1750","1700"
"2015/5/22","63","286","281","320","720","730","780","1750","1700"
"2015/5/25","63","286","281","320","720","730","780","1750","1700"
"2015/5/26","63","287","282","320","720","730","780","1750","1700"
"2015/5/27","63","288","283","320","710","720","770","1750","1700"
"2015/5/28","63","287","282","320","710","720","770","1750","1700"
"2015/5/29","63","293","288","320","710","720","770","1750","1700"
"2015/6/1","63","290","285","320","705","715","765","1750","1700"
"2015/6/2","63","293","288","320","705","715","765","1750","1700"
"2015/6/3","63","287","282","320","705","715","765","1750","1700"
"2015/6/4","63","287","282","320","705","715","765","1750","1700"
"2015/6/5","63","285","280","320","705","715","765","1750","1700"
"2015/6/8","63","286","281","320","705","715","765","1800","1750"
"2015/6/9","63","281","276","320","705","715","765","1800","1750"
"2015/6/10","63","280","275","320","705","715","765","1850","1800"
"2015/6/11","63","276","271","320","705","715","765","1850","1800"
"2015/6/12","63","274","269","320","690","700","750","1850","1800"
"2015/6/15","63","270","265","320","690","700","750","1800","1750"
"2015/6/16","63","267","262","320","690","700","750","1800","1750"
"2015/6/17","63","265","260","320","675","685","735","1750","1700"
"2015/6/18","63","266","261","320","675","685","735","1750","1700"
"2015/6/19","63","262","257","320","675","685","735","1750","1700"
"2015/6/22","63","263","258","320","665","675","725","1750","1700"
"2015/6/23","63","265","260","310","665","675","725","1750","1700"
"2015/6/24","63","269","264","310","665","675","725","1750","1700"
"2015/6/25","63","265","260","310","680","690","740","1750","1700"
"2015/6/29","63","256","251","310","680","690","740","1750","1700"
"2015/6/30","63","253","248","310","680","690","740","1650","1600"
"2015/7/1","63","252","247","310","670","680","730","1600","1550"
"2015/7/2","63","256","251","310","670","680","730","1650","1600"
"2015/7/3","63","253","248","310","670","680","730","1650","1600"
"2015/7/6","63","246","241","310","670","680","730","1650","1600"
"2015/7/7","63","246","241","310","660","670","720","1600","1550"
"2015/7/8","63","242","237","310","660","670","720","1550","1500"
"2015/7/9","63","239","234","310","660","670","720","1500","1450"
"2015/7/10","63","244","239","310","660","670","720","1550","1500"
"2015/7/13","63","245","240","310","660","670","720","1550","1500"
"2015/7/14","63","249","244","310","660","670","720","1600","1550"
"2015/7/15","63","248","243","310","660","670","720","1600","1550"
"2015/7/16","63","250","245","310","660","670","720","1600","1550"
"2015/7/17","63","251","246","310","660","670","720","1600","1550"
"2015/7/21","63","247","242","310","660","670","720","1600","1550"
"2015/7/22","63","243","238","310","660","670","720","1600","1550"
"2015/7/23","63","243","238","310","660","670","720","1600","1550"
"2015/7/24","63","240","235","310","640","650","700","1600","1550"
"2015/7/27","63","241","236","310","640","650","700","1550","1500"
"2015/7/28","63","240","235","310","640","650","700","1550","1500"
"2015/7/29","63","244","239","310","640","650","700","1550","1500"
"2015/7/30","63","244","239","310","640","650","700","1550","1500"
"2015/7/31","63","243","238","310","640","650","700","1550","1500"
"2015/8/3","63","240","235","310","630","640","690","1550","1500"
"2015/8/4","63","240","235","310","630","640","690","1550","1500"
"2015/8/5","63","241","236","310","630","640","690","1550","1500"
"2015/8/6","63","239","234","310","630","640","690","1550","1500"
"2015/8/7","63","239","234","310","630","640","690","1550","1500"
"2015/8/10","63","237","232","310","630","640","690","1550","1500"
"2015/8/11","63","241","236","310","640","650","700","1550","1500"
"2015/8/12","63","239","234","310","640","650","700","1550","1500"
"2015/8/13","63","237","232","310","640","650","700","1500","1450"
"2015/8/14","63","236","231","310","640","650","700","1500","1450"
"2015/8/17","63","236","231","310","630","640","690","1500","1450"
"2015/8/18","63","235","230","310","630","640","690","1500","1450"
"2015/8/19","63","234","229","310","615","625","675","1450","1400"
"2015/8/20","63","233","228","310","615","625","675","1450","1400"
"2015/8/21","63","236","231","310","615","625","675","1450","1400"
"2015/8/24","63","228","223","310","610","620","670","1400","1350"
"2015/8/25","63","221","216","310","610","620","670","1300","1250"
"2015/8/26","63","224","219","310","610","620","670","1300","1250"
"2015/8/27","63","225","220","310","590","600","650","1300","1250"
"2015/8/28","63","230","225","310","590","600","650","1350","1300"
"2015/8/31","63","230","225","310","590","600","650","1350","1300"
"2015/9/1","63","237","232","310","615","625","675","1350","1300"
"2015/9/2","63","232","227","310","615","625","675","1350","1300"
"2015/9/3","63","235","230","310","615","625","675","1350","1300"
"2015/9/4","63","237","232","310","620","630","680","1350","1300"
"2015/9/7","63","233","228","310","620","630","680","1350","1300"
"2015/9/8","63","232","227","310","620","630","680","1350","1300"
"2015/9/9","63","237","232","310","625","635","685","1350","1300"
"2015/9/10","63","236","231","310","625","635","685","1350","1300"
"2015/9/11","63","239","234","310","625","635","685","1400","1350"
"2015/9/14","63","240","235","310","630","640","690","1400","1350"
"2015/9/15","63","236","231","310","630","640","690","1400","1350"
"2015/9/16","63","236","231","310","630","640","690","1350","1300"
"2015/9/17","63","238","233","310","630","640","690","1400","1350"
"2015/9/18","63","239","234","310","630","640","690","1350","1300"
"2015/9/24","63","232","227","310","605","615","665","1350","1300"
"2015/9/25","63","233","228","310","605","615","665","1350","1300"
"2015/9/28","63","231","226","310","605","615","665","1350","1300"
"2015/9/29","63","228","223","310","605","615","665","1350","1300"
"2015/9/30","63","230","225","310","605","615","665","1350","1300"
"2015/10/1","63","233","228","310","605","615","665","1350","1300"
"2015/10/2","63","231","226","310","605","615","665","1400","1350"
"2015/10/5","63","232","227","310","605","615","665","1400","1350"
"2015/10/6","63","232","227","310","605","615","665","1400","1350"
"2015/10/7","63","229","224","310","605","615","665","1400","1350"
"2015/10/8","63","230","225","310","605","615","665","1400","1350"
"2015/10/9","63","228","223","310","605","615","665","1400","1350"
"2015/10/13","63","232","227","310","625","635","685","1450","1400"
"2015/10/14","63","230","225","310","625","635","685","1450","1400"
"2015/10/15","63","229","224","310","625","635","685","1400","1350"
"2015/10/16","63","225","220","310","620","630","680","1400","1350"
"2015/10/19","63","226","221","310","620","630","680","1400","1350"
"2015/10/20","63","223","218","310","620","630","680","1400","1350"
"2015/10/21","63","222","217","310","610","620","670","1400","1350"
"2015/10/22","63","218","213","310","610","620","670","1400","1350"
"2015/10/23","63","216","211","310","610","620","670","1400","1350"
"2015/10/26","63","218","213","310","615","625","675","1450","1400"
"2015/10/27","62","216","211","310","615","625","675","1450","1400"
"2015/10/28","62","215","210","310","615","625","675","1450","1400"
"2015/10/29","62","214","209","310","615","625","675","1450","1400"
"2015/10/30","62","216","211","310","615","625","675","1450","1400"
"2015/11/2","62","216","211","310","610","620","670","1400","1350"
"2015/11/4","62","220","215","310","610","620","670","1400","1350"
"2015/11/5","62","222","217","310","610","620","670","1400","1350"
"2015/11/6","62","225","220","310","600","610","660","1350","1300"
"2015/11/9","62","230","225","310","600","610","660","1350","1300"
"2015/11/10","62","228","223","310","600","610","660","1350","1300"
"2015/11/11","62","227","222","310","600","610","660","1350","1300"
"2015/11/12","62","230","225","310","595","605","655","1350","1300"
"2015/11/13","62","226","221","310","595","605","655","1350","1300"
"2015/11/16","62","225","220","310","595","605","655","1350","1300"
"2015/11/17","62","222","217","310","595","605","655","1350","1300"
"2015/11/18","62","223","218","310","580","590","640","1300","1250"
"2015/11/19","62","223","218","310","580","590","640","1300","1250"
"2015/11/20","62","222","217","310","580","590","640","1300","1250"
"2015/11/24","62","220","215","310","560","570","620","1200","1150"
"2015/11/25","62","220","215","310","560","570","620","1200","1150"
"2015/11/26","62","224","219","310","560","570","620","1200","1150"
"2015/11/27","62","229","224","310","560","570","620","1300","1250"
"2015/11/30","62","223","218","310","560","570","620","1250","1200"
"2015/12/1","62","222","217","310","570","580","630","1250","1200"
"2015/12/2","62","225","220","305","570","580","630","1250","1200"
"2015/12/3","62","226","221","305","570","580","630","1250","1200"
"2015/12/4","62","225","220","305","570","580","630","1250","1200"
"2015/12/7","62","230","225","305","570","580","630","1300","1250"
"2015/12/8","62","227","222","305","570","580","630","1300","1250"
"2015/12/9","62","225","220","305","570","580","630","1250","1200"
"2015/12/10","62","225","220","305","570","580","630","1250","1200"
"2015/12/11","62","226","221","305","570","580","630","1250","1200"
"2015/12/14","62","223","218","305","570","580","630","1250","1200"
"2015/12/15","62","222","217","305","570","580","630","1250","1200"
"2015/12/16","62","224","219","305","560","570","620","1250","1200"
"2015/12/17","62","227","222","305","560","570","620","1250","1200"
"2015/12/18","62","227","222","305","560","570","620","1250","1200"
"2015/12/21","62","227","222","305","560","570","620","1250","1200"
"2015/12/22","62","230","225","305","570","580","630","1250","1200"
"2015/12/24","62","232","227","305","570","580","630","1250","1200"
"2015/12/25","62","232","227","305","570","580","630","1200","1150"
